Location: Avully
(45.9633°N, 6.0228°E)
Time: 12:19:11
(UTC+00:00)

NOSS 3-4 (A) - Pass Details

Date: 23 May 2024
Orbit: 801 x 1410 km, 63.4° (Epoch: 04 June)

Event Time Altitude Azimuth Distance (km) Brightness Sun altitude
Rises 00:34:08 0° 318° (NW) 3,792 7.0 -22.0°
Reaches altitude 10° 00:36:38 10° 315° (NW) 2,919 6.3 -21.8°
Maximum altitude 00:43:29 58° 238° (WSW) 1,378 4.0 -21.5°
Enters shadow 00:47:12 32° 175° (S) 2,026 4.6 -21.3°
